Weather History for MMQT - September, 2013

Change the Weather History Date:

Friday, September 20, 2013

  Actual Average Record
Temperature  
Mean Temperature 72 °F -  
Max Temperature 85 °F 76 °F 85 °F (2013)
Min Temperature 60 °F 55 °F 46 °F (2006)
Cooling Degree Days 8    
Growing Degree Days 22 (Base 50)    
Moisture  
Dew Point 60 °F    
Average Humidity 69    
Maximum Humidity 94    
Minimum Humidity 30    
Precipitation  
Precipitation 1.35 in - - ()
Sea Level Pressure  
Sea Level Pressure 30.03 in    
Wind  
Wind Speed 3 mph ()    
Max Wind Speed 9 mph    
Max Gust Speed -    
Visibility 7.2 miles    
Events Rain , Thunderstorm    
Averages and records for this station are not official NWS values.
T = Trace of Precipitation, MM = Missing Value Source: Averaged Metar Reports

Daily Weather History Graph

Daily Weather History Graph

Search for Another Location

Airport or City:

Trip Planner

Search our weather history database for the weather conditions in past years. The results will help you decide how hot, cold, wet, or windy it might be!

Date:

Astronomy

Sep. 20, 2013 Rise Set
Actual Time 7:29 AM CDT 7:38 PM CDT
Civil Twilight 7:07 AM CDT 8:00 PM CDT
Nautical Twilight 6:41 AM CDT 8:26 PM CDT
Astronomical Twilight 6:15 AM CDT 8:52 PM CDT
Moon 8:32 PM CDT (9/20) 8:30 AM CDT (9/20)
Length of Visible Light 12h 53m
Length of Day
12h 09m
Full, 98% of the Moon is Illuminated
Sep 20
Full
Sep 26
Last Quarter
Oct 4
New
Oct 11
First Quarter
Oct 18
Full

Hourly Weather History & Observations

Time (CDT) Temp. Heat Index Dew Point Humidity Pressure Visibility Wind Dir Wind Speed Gust Speed Precip Events Conditions
12:45 AM 66 °F - 58 °F 67% 29.62 in 6 mi SE 2.2 mph - -   Scattered Clouds
12:45 AM 64.4 °F - 59.0 °F 83% 30.18 in 7.0 mi Calm Calm - N/A   Mostly Cloudy
1:45 AM 62.6 °F - 57.2 °F 82% 30.18 in 7.0 mi ENE 4.6 mph - N/A   Mostly Cloudy
2:45 AM 62.6 °F - 59.0 °F 88% 30.18 in 7.0 mi Calm Calm - N/A   Mostly Cloudy
3:40 AM 62.6 °F - 59.0 °F 88% 30.18 in 7.0 mi ENE 3.5 mph - N/A   Mostly Cloudy
4:45 AM 62.6 °F - 59.0 °F 88% 30.15 in 7.0 mi East 3.5 mph - N/A   Mostly Cloudy
5:45 AM 62.6 °F - 59.0 °F 88% 30.15 in 7.0 mi Calm Calm - N/A   Mostly Cloudy
6:40 AM 64 °F - 58 °F 76% 29.69 in 6 mi East 4.5 mph - -   Scattered Clouds
6:40 AM 60.8 °F - 59.0 °F 94% 30.15 in 7.0 mi Calm Calm - N/A   Mostly Cloudy
7:45 AM 60.8 °F - 57.2 °F 88% 30.14 in 6.0 mi Calm Calm - N/A   Mostly Cloudy
8:45 AM 62.6 °F - 55.4 °F 77% 30.16 in 6.0 mi Calm Calm - N/A   Mostly Cloudy
9:40 AM 68 °F - 58 °F 64% 29.73 in 16 mi NW 4.5 mph - -   Scattered Clouds
9:45 AM 66.2 °F - 57.2 °F 73% 30.16 in 6.0 mi Calm Calm - N/A   Mostly Cloudy
10:45 AM 71.6 °F - 60.8 °F 69% 30.18 in 6.0 mi Calm Calm - N/A   Mostly Cloudy
11:45 AM 73.4 °F - 60.8 °F 65% 30.18 in 6.0 mi West 9.2 mph - N/A   Mostly Cloudy
12:45 PM 78.8 °F - 60.8 °F 54% 30.15 in 6.0 mi West 9.2 mph - N/A   Mostly Cloudy
1:00 PM - - - %  in 12 mi West 156.6 mph - -  
1:45 PM 80.6 °F 81.8 °F 62.6 °F 54% 30.12 in 6.0 mi West 9.2 mph - N/A   Mostly Cloudy
2:45 PM 82.4 °F 84.6 °F 66.2 °F 58% 30.10 in 7.0 mi WSW 9.2 mph - N/A   Mostly Cloudy
3:45 PM 84.2 °F 85.6 °F 64.4 °F 51% 30.08 in 7.0 mi West 6.9 mph - N/A   Mostly Cloudy
3:50 PM 85 °F - 58 °F 30%  in 12 mi West 4.5 mph - -   Partly Cloudy
4:45 PM 84.2 °F 85.6 °F 64.4 °F 51% 30.04 in 7.0 mi SW 9.2 mph - N/A   Mostly Cloudy
5:45 PM 80.6 °F 81.8 °F 62.6 °F 54% 30.02 in 7.0 mi NNE 5.8 mph - N/A   Mostly Cloudy
6:45 PM 77.0 °F - 62.6 °F 61% 30.03 in 7.0 mi Calm Calm - N/A   Mostly Cloudy
6:50 PM 78 °F - 57 °F 38% 29.49 in 16 mi West 4.5 mph - -   Partly Cloudy
7:45 PM 77.0 °F - 62.6 °F 61% 30.04 in 7.0 mi Calm Calm - N/A   Mostly Cloudy
8:45 PM 73.4 °F - 59.0 °F 61% 30.07 in 7.0 mi Calm Calm - N/A   Mostly Cloudy
9:40 PM 72 °F - 60 °F 57% 29.48 in 3 mi South 6.7 mph - -   Mostly Cloudy
9:52 PM 69.8 °F - 60.8 °F 73% 30.09 in 5.0 mi NNW 4.6 mph - N/A Rain , Thunderstorm Thunderstorms and Rain
10:50 PM 66.2 °F - 62.6 °F 88% 30.12 in 4.0 mi South 6.9 mph - N/A Rain , Thunderstorm Thunderstorms and Rain
11:45 PM 64.4 °F - 62.6 °F 94% 30.15 in 3.0 mi South 9.2 mph - N/A Rain , Thunderstorm Thunderstorms and Rain